Terminal Aerodrome Forecast
Issued by NWS La Crosse, WI

Home | Current Version | Previous Version | Text Only | Print | Product List | Glossary On
Versions: 1 2 3 4 5 6 7 8 9 10 11 12 13 14 15 16 17 18 19 20 21 22 23 24 25 26 27 28
000
FTUS43 KARX 290520
TAFLSE
TAF
KLSE 290520Z 2906/3006 13005KT P6SM VCSH OVC025
     FM290900 15006KT 5SM -SHRA BR OVC007
     FM291400 17008KT P6SM OVC009
     FM291600 18010KT P6SM BKN012
     FM291800 18010KT P6SM BKN025
      TEMPO 2920/2924 3SM TSRA BKN030CB
     FM300100 18004KT 6SM -SHRA BKN025=

USA.gov is the U.S. government's official web portal to all federal, state and local government web resources and services.